Location: Newark
(42.8481°N, 0.4872°E)
Time: 08:35:36
(UTC+00:00)

Vanguard 2 - Pass Details

Date: 02 November 2020
Orbit: 554 x 2937 km, 32.9° (Epoch: 26 November)

Event Time Altitude Azimuth Distance (km) Brightness Sun altitude
Rises 21:34:13 0° 268° (W) 5,520 12.3 -51.1°
Reaches altitude 10° 21:37:32 10° 264° (W) 4,788 11.8 -51.6°
Enters shadow 21:45:55 41° 239° (WSW) 3,430 10.6 -52.8°
Maximum altitude 21:51:32 53° 193° (SSW) 3,231 - -53.6°
Drops below altitude 10° 22:08:32 10° 124° (ESE) 5,698 - -55.8°
Sets 22:12:55 0° 120° (ESE) 6,596 - -56.4°
